Regional Weather Roundup
Issued by NWS

Home | Current Version | Previous Version | Text Only | Print | Product List | Glossary Off
Versions: 1 2 3 4 5 6 7 8 9 10 11 12 13 14 15 16 17 18 19 20 21 22 23 24 25 26 27 28 29 30 31 32 33 34 35 36 37 38 39 40 41 42 43 44 45 46 47 48 49 50

000
ASUS43 KFSD 290810
RWRSD

WEATHER ROUNDUP FOR SOUTH DAKOTA
NATIONAL WEATHER SERVICE SIOUX FALLS SD
300 AM CDT WED JUL 29 2015

NOTE: "FAIR" INDICATES FEW OR NO CLOUDS BELOW 12,000 FEET WITH NO
SIGNIFICANT WEATHER AND/OR OBSTRUCTIONS TO VISIBILITY.


SDZ001>005-009-010-012>017-290900-
NORTHWEST AND NORTH CENTRAL SOUTH DAKOTA

CITY           SKY/WX    TMP DP  RH WIND       PRES   REMARKS
BUFFALO          N/A     52  38  58 W13       30.05S
FAITH            N/A     57  37  47 SW10      30.09
MOBRIDGE       CLEAR     62  47  57 W10       29.98S
$$

SDZ012>016-024>037-041>051-057-063-072>074-290900-
SOUTHWEST AND SOUTH CENTRAL SOUTH DAKOTA

CITY           SKY/WX    TMP DP  RH WIND       PRES   REMARKS
RAPID CTY ARPT CLEAR     52  42  69 NW7       30.20S
PIERRE         CLEAR     60  47  61 SW10      30.06S
CUSTER         CLEAR     45  32  60 S3        30.31S
ELLSWORTH AFB  CLEAR     54  42  64 W10       30.18R
PHILIP         CLEAR     54  47  77 W8        30.14R
PINE RIDGE     CLEAR     44  40  85 CALM      30.23R
SPEARFISH      FAIR      54  37  54 W7        30.22S
WINNER         FAIR      62  47  57 W9        30.12F
$$

SDZ004>011-016>023-039-040-290900-
NORTHEAST SOUTH DAKOTA

CITY           SKY/WX    TMP DP  RH WIND       PRES   REMARKS
ABERDEEN       CLEAR     59  50  72 SW13      29.96R
WATERTOWN      CLEAR     61  49  64 SW13      29.98S
BROOKINGS      CLEAR     59  50  72 SW8       30.03S
SISSETON         N/A     65  48  54 W15       29.89F
$$

SDZ017-020-022-023-036>040-048>070-290900-
SOUTHEAST SOUTH DAKOTA

CITY           SKY/WX    TMP DP  RH WIND       PRES   REMARKS
SIOUX FALLS    CLEAR     61  55  81 SW6       30.05F
HURON          CLEAR     61  49  64 W12       30.02F
CHAMBERLAIN    CLEAR     58  51  78 W7        30.09S
MITCHELL       CLEAR     63  52  67 SW8       30.06S
YANKTON        CLEAR     63  52  67 W6        30.08R
$$

ABBREVIATIONS USED IN REMARKS
   TC - TEMPERATURE IN CELSIUS
  WCI - WIND CHILL INDEX
   HX - HEAT INDEX
  VSB - VISIBILITY




USA.gov is the U.S. government's official web portal to all federal, state and local government web resources and services.